SCP
0 0 0 0 0 0 0 0 0 0 0 0 0 0 0 0 0 0 0 0 0 0 0 0 0 0 0 0 0 0 0 0 0 0 0 0 0 0 0 0 0 0 0 0
0 0 0 0 0 0 0 0 0 0 0 0 0 0 0 0 0 0 0 0 0 0 0 0 0 0 0 0 0 0 0 0 0 0 0 0 0 0 0 0 0 0 0 0
0 0 0 0 0 0 0 0 0 0 0 0 0 0 0 0 0 0 0 0 0 0 0 0 0 0 0 0 0 0 0 0 0 0 0 0 0 0 0 0 0 0 0 0
0 0 0 0 0 0 0 0 0 0 0 0 0 0 0 0 0 0 0 0 0 0 0 0 0 0 0 0 0 0 0 0 0 0 0 0 0 0 0 0 0 0 0 0
0 -0 -0 0 0 0 0 0 0 0 0 0 0 0 0 0 0 0 0 0 0 0 0 0 0 0 0 0 0 0 0 0 0 0 0 0 0 0 0 0 0 0 0 0
0 0 -0 -0 -0 0 0 0 0 0 0 0 0 0 0 0 0 0 0 0 0 0 0 0 0 0 0 0 0 0 0 0 0 0 0 0 0 0 0 0 0 0 0 0
0 0 0 0 0 0 0 0 0 -0 -0 0 0 0 0 0 0 0 0 0 0 0 0 0 0 0 0 0 0 0 0 0 0 0 0 0 0 0 0 0 0 0 0 0
0 0 0 0 0 0 0 0 0 0 0 0 0 0 0 0 0 0 0 0 0 0 0 0 0 0 0 0 0 0 0 0 0 0 0 0 0 0 0 0 0 0 0 0
0 0 0 0 0 0 0 0 0 0 0 0 0 0 0 0 0 0 0 0 0 0 0 0 0 0 0 0 0 0 0 0 0 0 0 0 0 0 0 0 0 0 0 0
0 0 0 0 0 0 0 -0 0 0 0 0 0 0 0 0 0 0 0 0 0 0 0 0 0 0 0 0 0 0 0 0 0 0 0 0 0 0 0 0 0 0 0 0
0 0 0 0 0 0 0 0 0 0 0 0 0 0 0 0 0 0 0 0 0 0 0 0 0 0 0 0 0 0 0 0 0 0 0 0 0 0 0 0 0 0 0 0
0 0 0 0 0 0 0 0 0 0 0 0 0 0 0 0 0 0 0 0 0 0 0 0 0 0 0 0 0 0 0 0 0 0 0 0 0 0 0 0 0 0 0 0
0 0 0 0 0 0 -0 -0 0 0 0 0 0 0 0 0 0 0 0 0 0 0 0 0 0 0 0 0 0 0 0 0 0 0 0 0 0 0 0 0 0 0 0 0
0 0 -0 0 -0 0 0 0 0 0 0 0 0 0 0 0 0 0 0 0 0 0 0 0 0 0 0 0 0 0 0 0 0 0 0 0 0 0 0 0 0 0 0 0
0 0 0 0 0 0 0 0 0 0 0 0 0 0 0 0 0 0 0 0 0 0 0 0 0 0 0 0 0 0 0 0 0 0 0 0 0 0 0 0 0 0 0 0
0 -0 0 0 0 0 0 0 0 0 0 0 0 0 0 0 0 0 0 0 0 0 0 0 0 0 0 0 0 0 0 0 0 0 0 0 0 0 0 0 0 0 0 0
0 0 0 0 0 0 0 0 0 0 0 0 0 0 0 0 0 0 0 0 0 0 0 0 0 0 0 0 0 0 0 0 0 0 0 0 0 0 0 0 0 0 0 0
0 0 0 0 0 0 0 0 0 0 0 0 0 0 0 0 0 0 0 0 0 0 0 0 0 0 0 0 0 0 0 0 0 0 0 0 0 0 0 0 0 0 0 0
0 0 0 0 0 0 0 0 0 0 0 0 0 0 0 0 0 0 0 0 0 0 0 0 0 0 0 0 0 0 0 0 0 0 0 0 0 0 0 0 0 0 0 0
0 0 0 0 0 0 0 0 0 0 0 0 0 0 0 0 0 0 0 0 0 0 0 0 0 0 0 0 0 0 0 0 0 0 0 0 0 0 0 0 0 0 0 0
0 0 0 0 0 0 0 0 0 0 0 0 0 0 0 0 0 0 0 0 0 0 0 0 0 0 0 0 0 0 0 0 0 0 0 0 0 0 0 0 0 0 0 0
0 0 0 0 0 0 0 0 0 0 0 0 0 0 0 0 0 0 0 0 0 0 0 0 0 0 0 0 0 0 0 0 0 0 0 0 0 0 0 0 0 0 0 0
0 0 0 0 0 0 0 0 0 0 0 0 0 0 0 0 0 0 0 0 0 0 0 0 0 0 0 0 0 0 0 0 0 0 0 0 0 0 0 0 0 0 0 0
0 0 0 0 0 0 0 0 0 0 0 0 0 0 0 0 0 0 0 0 0 0 0 0 0 0 0 0 0 0 0 0 0 0 0 0 0 0 0 0 0 0 0 0
0 0 0 0 0 0 0 0 0 0 0 0 0 0 0 0 0 0 0 0 0 0 0 0 0 0 0 0 0 0 0 0 0 0 0 0 0 0 0 0 0 0 0 0
0 0 0 0 0 0 0 0 0 0 0 0 0 0 0 0 0 0 0 0 0 0 0 0 0 0 0 0 0 0 0 0 0 0 0 0 0 0 0 0 0 0 0 0
0 0 0 0 0 0 0 0 0 0 0 0 0 0 0 0 0 0 0 0 0 0 0 0 0 0 0 0 0 0 0 0 0 0 0 0 0 0 0 0 0 0 0 0
Wind_Speed_500mb
30 11 3 11 16 26 33 45 28 45 42 45 27 24 32 40 32 31 39 47 39 39 36 38 39 42 48 52 53 54 55 56 56 56 55 56 56 55 55 53 51 50 48 46
11 16 18 25 14 26 41 43 33 55 50 32 46 34 44 52 50 60 64 70 53 45 44 44 41 39 42 44 50 58 64 65 62 63 63 62 60 57 56 54 52 49 46 44
9 4 12 12 43 47 33 31 38 37 60 27 36 30 58 59 62 76 81 78 65 62 55 56 59 58 58 51 49 53 61 66 67 68 68 65 61 59 57 54 50 47 45 43
8 6 11 19 7 24 42 46 38 36 46 53 55 54 42 64 74 82 78 80 78 67 64 60 58 57 54 53 53 55 59 61 64 68 70 68 66 62 56 52 48 46 45 44
3 8 13 19 17 11 17 34 42 44 50 74 81 25 47 71 75 73 78 74 73 67 63 59 59 57 57 57 58 61 63 66 66 65 69 68 67 60 55 52 50 49 49 49
2 7 11 20 3 17 10 15 35 39 40 54 18 12 33 82 54 65 63 61 55 50 50 50 46 46 50 53 53 52 53 57 59 59 61 63 62 59 56 53 51 50 49 49
20 13 14 22 10 6 11 21 5 18 50 55 20 48 83 65 51 43 36 39 41 42 46 49 50 48 44 41 41 40 41 44 46 48 52 57 58 60 57 55 53 52 51 51
5 11 17 10 2 16 13 23 23 12 22 39 52 62 77 80 72 63 54 47 47 48 51 50 48 45 41 39 38 39 40 42 45 47 51 55 57 57 55 55 53 53 53 52
14 11 18 26 28 60 62 57 72 49 45 48 48 54 49 44 43 47 45 47 47 44 48 50 45 39 40 41 45 48 46 45 47 49 51 53 56 56 56 55 53 54 54 54
6 25 34 56 64 66 56 60 80 79 84 61 60 67 65 64 57 53 46 38 41 45 46 47 45 49 51 52 51 49 49 51 50 50 50 53 55 54 55 54 54 55 55 53
18 32 46 70 68 51 47 50 39 43 61 68 64 68 60 58 49 45 46 43 42 45 50 55 57 57 55 51 48 48 47 47 48 49 51 51 52 51 52 50 49 49 50 49
14 40 31 46 56 53 46 44 51 39 48 53 52 60 63 67 58 52 50 46 49 52 57 62 64 59 55 50 46 47 48 49 50 51 49 52 51 54 49 45 46 47 45 43
41 63 55 59 53 71 58 50 36 53 65 56 53 57 61 63 59 55 57 55 54 53 53 55 58 58 53 48 46 46 46 46 50 51 51 54 55 54 49 49 49 47 47 45
64 64 62 51 59 62 62 61 57 50 49 51 56 57 59 62 63 60 59 55 52 52 54 54 56 55 53 49 47 45 45 44 47 49 51 51 51 50 48 47 50 51 49 49
38 38 46 51 52 59 61 53 55 59 57 59 58 62 58 57 57 54 52 51 50 50 49 50 51 52 51 48 46 43 44 45 45 47 49 48 49 50 50 51 47 41 44 41
66 55 43 33 35 37 42 41 45 50 50 54 55 55 57 60 60 57 54 51 49 47 44 46 47 45 45 45 43 43 43 44 45 47 49 50 50 49 48 44 42 42 39 38
22 26 36 37 41 44 46 44 45 48 52 52 53 54 55 54 53 48 43 41 41 40 39 39 37 40 42 42 42 40 41 42 42 44 45 44 43 42 39 39 37 35 37 40
22 24 29 36 45 51 55 54 52 52 53 53 49 47 45 41 39 37 36 35 36 38 38 37 34 35 35 35 35 37 37 37 39 42 42 41 39 36 34 34 35 36 38 41
36 40 44 49 52 58 64 66 64 62 56 53 49 45 42 39 35 34 34 33 32 32 28 26 30 31 32 34 36 38 38 38 38 36 35 34 34 33 33 34 36 37 41 43
39 46 53 57 59 63 66 63 65 61 53 52 48 43 39 35 33 32 32 32 27 26 23 23 25 26 28 32 33 34 34 35 35 34 34 33 32 31 32 35 38 40 42 44
51 55 59 62 63 60 63 62 59 54 47 44 42 37 35 33 30 29 30 30 25 23 21 21 22 26 31 32 33 34 35 34 34 32 32 32 33 33 35 37 39 41 43 47
59 64 66 66 67 66 58 53 51 49 45 40 35 32 30 27 27 27 27 27 24 24 24 24 25 29 30 32 34 34 34 33 32 33 33 32 33 35 36 38 41 44 48 50
64 64 63 60 61 59 53 47 45 45 41 36 32 29 28 26 24 24 22 23 24 24 25 26 26 29 31 32 33 32 32 31 31 32 33 33 35 37 38 41 45 47 49 50
65 60 59 56 53 49 45 38 38 38 38 35 32 30 27 27 26 22 22 22 21 23 25 27 28 29 30 32 31 30 30 31 31 32 34 36 37 39 41 43 46 47 50 51
56 56 54 52 47 39 37 34 34 34 33 30 28 28 29 26 26 23 20 23 22 20 24 27 30 31 30 30 30 30 30 31 32 34 36 37 38 41 43 45 47 49 51 52
50 48 45 42 38 31 30 31 32 30 31 29 25 23 23 25 24 24 24 23 24 24 25 27 29 29 28 29 30 31 32 32 32 34 36 37 39 43 45 47 50 52 53 54
39 41 39 32 28 30 30 28 29 27 28 28 26 26 27 26 26 26 26 27 27 28 29 27 29 31 32 34 35 35 35 34 35 35 36 39 43 46 49 51 53 54 55 56
Wind_Direction_500mb
259 270 246 201 200 216 217 231 228 256 250 251 249 251 254 258 227 260 281 298 304 298 287 276 270 264 261 260 258 258 259 259 259 260 261 263 265 266 266 266 266 266 266 266
278 255 233 250 235 228 224 234 240 250 258 254 261 256 239 242 238 246 258 282 288 282 274 282 288 282 278 269 267 263 261 262 261 260 261 262 263 264 264 264 263 263 262 261
258 47 2 257 234 231 233 229 225 240 249 258 260 225 235 239 247 258 264 270 271 276 269 275 277 282 281 279 275 270 266 264 262 260 260 261 261 260 261 260 260 260 259 258
259 72 256 237 257 224 239 250 246 253 262 256 254 262 256 249 247 250 255 262 269 271 270 274 273 273 272 267 267 269 269 267 262 259 259 257 256 256 256 256 256 255 254 252
210 203 290 307 251 190 181 251 247 247 257 263 267 264 260 254 251 254 258 266 273 279 275 271 268 266 262 263 263 263 265 268 269 263 258 254 252 252 254 254 253 253 252 251
42 218 222 242 150 215 115 251 248 237 250 260 246 246 263 266 256 255 262 269 266 267 267 267 265 261 258 259 259 259 263 266 268 265 260 254 252 251 252 250 249 247 246 245
236 241 273 265 221 145 172 251 244 234 242 251 228 239 259 273 270 271 264 266 251 255 258 260 259 261 260 259 263 264 263 265 266 263 258 252 248 246 244 243 240 240 238 238
210 230 247 291 34 190 291 283 255 290 309 313 297 272 261 263 269 275 275 268 264 261 260 255 255 255 256 263 266 263 263 261 260 257 250 242 240 241 240 239 237 235 234 235
197 227 273 280 264 284 281 301 301 298 277 283 286 287 293 289 285 283 276 271 265 256 253 253 247 249 260 262 259 258 259 260 256 250 244 239 236 236 234 235 234 235 234 232
39 260 255 273 286 286 283 283 285 286 292 291 295 291 290 286 287 287 281 261 257 258 255 248 247 257 258 257 255 254 256 254 249 243 238 235 233 232 233 232 231 231 232 233
248 270 273 272 279 296 310 292 280 300 305 300 298 293 296 293 290 284 279 274 265 259 254 252 254 253 250 248 249 250 248 246 242 238 234 233 235 236 235 233 235 235 232 231
243 263 259 273 293 307 308 302 301 300 297 300 301 297 298 292 291 288 283 277 273 268 263 261 258 253 247 243 243 244 242 239 237 233 233 234 232 228 224 222 225 226 223 225
255 280 285 287 291 308 308 303 299 300 306 299 294 290 286 285 286 285 283 279 275 270 264 261 259 253 249 247 243 243 242 241 236 233 232 231 228 226 221 217 216 217 226 228
285 286 291 291 307 304 302 306 303 296 294 292 291 289 288 284 282 283 281 280 277 273 266 259 252 250 248 243 244 239 238 233 237 240 231 227 226 224 220 218 227 226 224 230
308 298 288 292 291 294 302 304 303 301 301 294 291 288 286 286 285 286 285 281 274 267 263 258 253 249 247 243 237 236 237 237 232 228 226 221 218 216 220 228 224 229 236 244
298 299 296 300 306 308 306 308 306 309 308 304 300 298 290 285 285 284 283 281 276 276 272 263 256 249 242 237 233 230 228 228 226 222 219 215 215 221 227 225 232 236 245 254
314 333 325 332 333 331 326 322 316 312 309 308 305 299 292 288 287 288 286 280 273 267 260 254 249 242 237 235 234 231 227 225 219 216 219 221 224 221 227 232 237 245 252 257
354 341 333 329 328 326 324 319 316 312 310 308 306 302 296 289 286 280 277 273 269 264 258 252 246 240 237 232 226 221 216 215 217 216 217 216 222 225 229 238 246 253 258 263
356 349 344 338 331 323 318 315 312 308 306 303 301 299 294 291 284 280 278 273 267 265 261 251 239 227 220 216 213 209 209 210 212 215 221 225 227 231 237 246 252 258 262 266
340 334 329 326 323 319 316 315 309 306 303 299 298 297 296 294 289 286 284 282 279 274 266 255 241 224 211 207 206 208 210 212 215 216 219 226 234 241 248 255 260 264 267 271
325 319 317 315 311 310 310 310 308 306 304 299 296 294 292 290 286 282 279 279 278 264 252 242 230 218 213 210 208 212 217 219 219 222 228 234 240 247 254 259 264 270 276 280
320 316 313 310 307 305 307 310 307 303 303 300 295 288 286 286 283 278 275 271 263 252 243 236 228 218 215 214 215 217 218 223 228 232 238 245 250 254 260 267 274 277 278 278
317 315 313 312 309 307 307 310 305 304 304 299 293 291 288 283 276 275 272 266 260 254 244 236 230 225 223 222 222 224 227 231 237 245 249 253 258 264 269 272 274 277 280 283
309 310 310 311 309 306 305 303 303 304 303 301 298 295 291 289 282 280 274 265 256 251 242 235 228 226 225 228 230 230 234 239 244 251 258 263 267 271 273 276 280 283 285 285
311 311 310 309 307 309 305 307 309 307 304 302 298 296 296 292 286 284 278 265 257 248 240 236 234 234 232 235 237 240 243 248 253 258 264 269 272 275 279 283 286 288 288 288
315 316 314 309 307 304 300 301 306 309 304 300 298 295 292 289 286 281 276 271 262 254 246 243 242 243 242 244 247 251 255 258 262 265 268 273 279 282 286 288 289 289 289 289
321 322 322 317 307 300 300 306 308 307 303 304 304 300 295 289 283 278 272 267 263 258 254 252 248 246 247 248 250 251 254 259 262 268 275 281 285 289 291 291 291 291 291 291
Wind_Speed_850mb
30 11 3 11 16 26 33 45 28 45 42 45 27 24 32 40 32 31 39 47 39 39 36 38 39 42 48 52 53 54 55 56 56 56 55 56 56 55 55 53 51 50 48 46
11 16 18 25 14 26 41 43 33 55 50 32 46 34 44 52 50 60 64 70 53 45 44 44 41 39 42 44 50 58 64 65 62 63 63 62 60 57 56 54 52 49 46 44
9 4 12 12 43 47 33 31 38 37 60 27 36 30 58 59 62 76 81 78 65 62 55 56 59 58 58 51 49 53 61 66 67 68 68 65 61 59 57 54 50 47 45 43
8 6 11 19 7 24 42 46 38 36 46 53 55 54 42 64 74 82 78 80 78 67 64 60 58 57 54 53 53 55 59 61 64 68 70 68 66 62 56 52 48 46 45 44
3 8 13 19 17 11 17 34 42 44 50 74 81 25 47 71 75 73 78 74 73 67 63 59 59 57 57 57 58 61 63 66 66 65 69 68 67 60 55 52 50 49 49 49
2 7 11 20 3 17 10 15 35 39 40 54 18 12 33 82 54 65 63 61 55 50 50 50 46 46 50 53 53 52 53 57 59 59 61 63 62 59 56 53 51 50 49 49
20 13 14 22 10 6 11 21 5 18 50 55 20 48 83 65 51 43 36 39 41 42 46 49 50 48 44 41 41 40 41 44 46 48 52 57 58 60 57 55 53 52 51 51
5 11 17 10 2 16 13 23 23 12 22 39 52 62 77 80 72 63 54 47 47 48 51 50 48 45 41 39 38 39 40 42 45 47 51 55 57 57 55 55 53 53 53 52
14 11 18 26 28 60 62 57 72 49 45 48 48 54 49 44 43 47 45 47 47 44 48 50 45 39 40 41 45 48 46 45 47 49 51 53 56 56 56 55 53 54 54 54
6 25 34 56 64 66 56 60 80 79 84 61 60 67 65 64 57 53 46 38 41 45 46 47 45 49 51 52 51 49 49 51 50 50 50 53 55 54 55 54 54 55 55 53
18 32 46 70 68 51 47 50 39 43 61 68 64 68 60 58 49 45 46 43 42 45 50 55 57 57 55 51 48 48 47 47 48 49 51 51 52 51 52 50 49 49 50 49
14 40 31 46 56 53 46 44 51 39 48 53 52 60 63 67 58 52 50 46 49 52 57 62 64 59 55 50 46 47 48 49 50 51 49 52 51 54 49 45 46 47 45 43
41 63 55 59 53 71 58 50 36 53 65 56 53 57 61 63 59 55 57 55 54 53 53 55 58 58 53 48 46 46 46 46 50 51 51 54 55 54 49 49 49 47 47 45
64 64 62 51 59 62 62 61 57 50 49 51 56 57 59 62 63 60 59 55 52 52 54 54 56 55 53 49 47 45 45 44 47 49 51 51 51 50 48 47 50 51 49 49
38 38 46 51 52 59 61 53 55 59 57 59 58 62 58 57 57 54 52 51 50 50 49 50 51 52 51 48 46 43 44 45 45 47 49 48 49 50 50 51 47 41 44 41
66 55 43 33 35 37 42 41 45 50 50 54 55 55 57 60 60 57 54 51 49 47 44 46 47 45 45 45 43 43 43 44 45 47 49 50 50 49 48 44 42 42 39 38
22 26 36 37 41 44 46 44 45 48 52 52 53 54 55 54 53 48 43 41 41 40 39 39 37 40 42 42 42 40 41 42 42 44 45 44 43 42 39 39 37 35 37 40
22 24 29 36 45 51 55 54 52 52 53 53 49 47 45 41 39 37 36 35 36 38 38 37 34 35 35 35 35 37 37 37 39 42 42 41 39 36 34 34 35 36 38 41
36 40 44 49 52 58 64 66 64 62 56 53 49 45 42 39 35 34 34 33 32 32 28 26 30 31 32 34 36 38 38 38 38 36 35 34 34 33 33 34 36 37 41 43
39 46 53 57 59 63 66 63 65 61 53 52 48 43 39 35 33 32 32 32 27 26 23 23 25 26 28 32 33 34 34 35 35 34 34 33 32 31 32 35 38 40 42 44
51 55 59 62 63 60 63 62 59 54 47 44 42 37 35 33 30 29 30 30 25 23 21 21 22 26 31 32 33 34 35 34 34 32 32 32 33 33 35 37 39 41 43 47
59 64 66 66 67 66 58 53 51 49 45 40 35 32 30 27 27 27 27 27 24 24 24 24 25 29 30 32 34 34 34 33 32 33 33 32 33 35 36 38 41 44 48 50
64 64 63 60 61 59 53 47 45 45 41 36 32 29 28 26 24 24 22 23 24 24 25 26 26 29 31 32 33 32 32 31 31 32 33 33 35 37 38 41 45 47 49 50
65 60 59 56 53 49 45 38 38 38 38 35 32 30 27 27 26 22 22 22 21 23 25 27 28 29 30 32 31 30 30 31 31 32 34 36 37 39 41 43 46 47 50 51
56 56 54 52 47 39 37 34 34 34 33 30 28 28 29 26 26 23 20 23 22 20 24 27 30 31 30 30 30 30 30 31 32 34 36 37 38 41 43 45 47 49 51 52
50 48 45 42 38 31 30 31 32 30 31 29 25 23 23 25 24 24 24 23 24 24 25 27 29 29 28 29 30 31 32 32 32 34 36 37 39 43 45 47 50 52 53 54
39 41 39 32 28 30 30 28 29 27 28 28 26 26 27 26 26 26 26 27 27 28 29 27 29 31 32 34 35 35 35 34 35 35 36 39 43 46 49 51 53 54 55 56
Wind_Direction_850mb
259 270 246 201 200 216 217 231 228 256 250 251 249 251 254 258 227 260 281 298 304 298 287 276 270 264 261 260 258 258 259 259 259 260 261 263 265 266 266 266 266 266 266 266
278 255 233 250 235 228 224 234 240 250 258 254 261 256 239 242 238 246 258 282 288 282 274 282 288 282 278 269 267 263 261 262 261 260 261 262 263 264 264 264 263 263 262 261
258 47 2 257 234 231 233 229 225 240 249 258 260 225 235 239 247 258 264 270 271 276 269 275 277 282 281 279 275 270 266 264 262 260 260 261 261 260 261 260 260 260 259 258
259 72 256 237 257 224 239 250 246 253 262 256 254 262 256 249 247 250 255 262 269 271 270 274 273 273 272 267 267 269 269 267 262 259 259 257 256 256 256 256 256 255 254 252
210 203 290 307 251 190 181 251 247 247 257 263 267 264 260 254 251 254 258 266 273 279 275 271 268 266 262 263 263 263 265 268 269 263 258 254 252 252 254 254 253 253 252 251
42 218 222 242 150 215 115 251 248 237 250 260 246 246 263 266 256 255 262 269 266 267 267 267 265 261 258 259 259 259 263 266 268 265 260 254 252 251 252 250 249 247 246 245
236 241 273 265 221 145 172 251 244 234 242 251 228 239 259 273 270 271 264 266 251 255 258 260 259 261 260 259 263 264 263 265 266 263 258 252 248 246 244 243 240 240 238 238
210 230 247 291 34 190 291 283 255 290 309 313 297 272 261 263 269 275 275 268 264 261 260 255 255 255 256 263 266 263 263 261 260 257 250 242 240 241 240 239 237 235 234 235
197 227 273 280 264 284 281 301 301 298 277 283 286 287 293 289 285 283 276 271 265 256 253 253 247 249 260 262 259 258 259 260 256 250 244 239 236 236 234 235 234 235 234 232
39 260 255 273 286 286 283 283 285 286 292 291 295 291 290 286 287 287 281 261 257 258 255 248 247 257 258 257 255 254 256 254 249 243 238 235 233 232 233 232 231 231 232 233
248 270 273 272 279 296 310 292 280 300 305 300 298 293 296 293 290 284 279 274 265 259 254 252 254 253 250 248 249 250 248 246 242 238 234 233 235 236 235 233 235 235 232 231
243 263 259 273 293 307 308 302 301 300 297 300 301 297 298 292 291 288 283 277 273 268 263 261 258 253 247 243 243 244 242 239 237 233 233 234 232 228 224 222 225 226 223 225
255 280 285 287 291 308 308 303 299 300 306 299 294 290 286 285 286 285 283 279 275 270 264 261 259 253 249 247 243 243 242 241 236 233 232 231 228 226 221 217 216 217 226 228
285 286 291 291 307 304 302 306 303 296 294 292 291 289 288 284 282 283 281 280 277 273 266 259 252 250 248 243 244 239 238 233 237 240 231 227 226 224 220 218 227 226 224 230
308 298 288 292 291 294 302 304 303 301 301 294 291 288 286 286 285 286 285 281 274 267 263 258 253 249 247 243 237 236 237 237 232 228 226 221 218 216 220 228 224 229 236 244
298 299 296 300 306 308 306 308 306 309 308 304 300 298 290 285 285 284 283 281 276 276 272 263 256 249 242 237 233 230 228 228 226 222 219 215 215 221 227 225 232 236 245 254
314 333 325 332 333 331 326 322 316 312 309 308 305 299 292 288 287 288 286 280 273 267 260 254 249 242 237 235 234 231 227 225 219 216 219 221 224 221 227 232 237 245 252 257
354 341 333 329 328 326 324 319 316 312 310 308 306 302 296 289 286 280 277 273 269 264 258 252 246 240 237 232 226 221 216 215 217 216 217 216 222 225 229 238 246 253 258 263
356 349 344 338 331 323 318 315 312 308 306 303 301 299 294 291 284 280 278 273 267 265 261 251 239 227 220 216 213 209 209 210 212 215 221 225 227 231 237 246 252 258 262 266
340 334 329 326 323 319 316 315 309 306 303 299 298 297 296 294 289 286 284 282 279 274 266 255 241 224 211 207 206 208 210 212 215 216 219 226 234 241 248 255 260 264 267 271
325 319 317 315 311 310 310 310 308 306 304 299 296 294 292 290 286 282 279 279 278 264 252 242 230 218 213 210 208 212 217 219 219 222 228 234 240 247 254 259 264 270 276 280
320 316 313 310 307 305 307 310 307 303 303 300 295 288 286 286 283 278 275 271 263 252 243 236 228 218 215 214 215 217 218 223 228 232 238 245 250 254 260 267 274 277 278 278
317 315 313 312 309 307 307 310 305 304 304 299 293 291 288 283 276 275 272 266 260 254 244 236 230 225 223 222 222 224 227 231 237 245 249 253 258 264 269 272 274 277 280 283
309 310 310 311 309 306 305 303 303 304 303 301 298 295 291 289 282 280 274 265 256 251 242 235 228 226 225 228 230 230 234 239 244 251 258 263 267 271 273 276 280 283 285 285
311 311 310 309 307 309 305 307 309 307 304 302 298 296 296 292 286 284 278 265 257 248 240 236 234 234 232 235 237 240 243 248 253 258 264 269 272 275 279 283 286 288 288 288
315 316 314 309 307 304 300 301 306 309 304 300 298 295 292 289 286 281 276 271 262 254 246 243 242 243 242 244 247 251 255 258 262 265 268 273 279 282 286 288 289 289 289 289
321 322 322 317 307 300 300 306 308 307 303 304 304 300 295 289 283 278 272 267 263 258 254 252 248 246 247 248 250 251 254 259 262 268 275 281 285 289 291 291 291 291 291 291